Weather History for Austin Bergstrom, TX

Change the Weather History Date:

Friday, January 24, 2014

  Actual Average Record
Temperature  
Mean Temperature 31 °F 49 °F  
Max Temperature 37 °F 62 °F 82 °F (1950)
Min Temperature 24 °F 37 °F 14 °F (1963)
Degree Days  
Heating Degree Days 34 16  
Month to date heating degree days 436 384  
Since 1 July heating degree days 1305 1131  
Cooling Degree Days 0 0  
Month to date cooling degree days 0 0  
Year to date cooling degree days 0 0  
Moisture  
Dew Point 19 °F    
Average Humidity 66    
Maximum Humidity 88    
Minimum Humidity 44    
Precipitation  
Precipitation 0.05 in 0.07 in 0.81 in (1974)
Month to date precipitation 0.52 1.77  
Year to date precipitation 0.52 1.77  
Snow  
Snow T in - - ()
Month to date snowfall T  
Since 1 July snowfall T  
Snow Depth T in    
Sea Level Pressure  
Sea Level Pressure 30.62 in    
Wind  
Wind Speed 8 mph (NNW)    
Max Wind Speed 10 mph    
Max Gust Speed 12 mph    
Visibility 9 miles    
Events Rain    
T = Trace of Precipitation, MM = Missing Value Source: NWS Daily Summary

Daily Weather History Graph

Daily Weather History Graph

Search for Another Location

Airport:

Trip Planner

Search our weather history database for the weather conditions in past years. The results will help you decide how hot, cold, wet, or windy it might be!

Date:

Astronomy

Jan. 24, 2014 Rise Set
Actual Time 7:25 AM CST 6:00 PM CST
Civil Twilight 6:59 AM CST 6:26 PM CST
Nautical Twilight 6:30 AM CST 6:55 PM CST
Astronomical Twilight 6:02 AM CST 7:23 PM CST
Moon 12:59 AM CST (1/24) 12:15 PM CST (1/24)
Length of Visible Light 11h 26m
Length of Day
10h 35m
Last Quarter, 44% of the Moon is Illuminated
Jan 24
Last Quarter
Jan 30
New
Feb 6
First Quarter
Feb 14
Full
Feb 22
Last Quarter

Hourly Weather History & Observations

Time (CST) Temp. Windchill Dew Point Humidity Pressure Visibility Wind Dir Wind Speed Gust Speed Precip Events Conditions
12:53 AM 26.1 °F 12.0 °F 21.9 °F 84% 30.72 in 4.0 mi North 20.7 mph 26.5 mph 0.03 in   Ice Pellets
1:45 AM 24.8 °F 10.7 °F 21.2 °F 86% 30.69 in 3.0 mi North 19.6 mph 24.2 mph 0.02 in   Ice Pellets
1:53 AM 25.0 °F 10.9 °F 21.0 °F 85% 30.73 in 3.0 mi North 19.6 mph - 0.02 in   Ice Pellets
2:16 AM 24.8 °F 11.5 °F 21.2 °F 86% 30.69 in 3.0 mi North 17.3 mph - 0.00 in   Ice Pellets
2:39 AM 24.8 °F 12.9 °F 21.2 °F 86% 30.69 in 3.0 mi North 13.8 mph 23.0 mph 0.00 in Rain Light Freezing Rain
2:53 AM 26.1 °F 13.6 °F 21.0 °F 81% 30.72 in 9.0 mi North 16.1 mph - 0.00 in Rain Light Freezing Rain
3:03 AM 26.6 °F 14.7 °F 21.2 °F 80% 30.69 in 10.0 mi North 15.0 mph - 0.00 in   Overcast
3:53 AM 26.1 °F 15.6 °F 19.9 °F 78% 30.73 in 10.0 mi North 11.5 mph - 0.00 in   Overcast
4:53 AM 26.1 °F 16.8 °F 19.0 °F 75% 30.72 in 10.0 mi North 9.2 mph - N/A   Overcast
5:53 AM 27.0 °F 18.0 °F 17.1 °F 66% 30.72 in 10.0 mi North 9.2 mph - N/A   Overcast
6:53 AM 27.0 °F 16.7 °F 17.1 °F 66% 30.74 in 10.0 mi North 11.5 mph - N/A   Overcast
7:53 AM 27.0 °F 15.6 °F 16.0 °F 63% 30.74 in 10.0 mi North 13.8 mph - N/A   Overcast
8:53 AM 28.9 °F 18.2 °F 16.0 °F 58% 30.74 in 10.0 mi North 13.8 mph - N/A   Overcast
9:53 AM 30.0 °F 22.4 °F 15.1 °F 54% 30.74 in 10.0 mi NNW 8.1 mph - N/A   Overcast
10:53 AM 30.0 °F 22.4 °F 14.0 °F 51% 30.74 in 10.0 mi NNW 8.1 mph - N/A   Overcast
11:53 AM 30.9 °F 23.5 °F 15.1 °F 52% 30.69 in 10.0 mi North 8.1 mph - N/A   Overcast
12:53 PM 33.1 °F 25.5 °F 16.0 °F 50% 30.64 in 10.0 mi NNW 9.2 mph - N/A   Overcast
1:53 PM 35.1 °F 30.1 °F 18.0 °F 50% 30.59 in 10.0 mi North 5.8 mph - N/A   Overcast
2:53 PM 36.0 °F 33.3 °F 17.1 °F 46% 30.56 in 10.0 mi NNW 3.5 mph - N/A   Overcast
3:53 PM 37.0 °F 34.5 °F 19.0 °F 48% 30.53 in 10.0 mi West 3.5 mph - N/A   Overcast
4:53 PM 37.0 °F 34.5 °F 18.0 °F 46% 30.51 in 10.0 mi West 3.5 mph - N/A   Scattered Clouds
5:53 PM 32.0 °F 28.7 °F 21.0 °F 64% 30.49 in 10.0 mi South 3.5 mph - N/A   Scattered Clouds
6:53 PM 30.0 °F - 21.0 °F 69% 30.48 in 10.0 mi Calm Calm - N/A   Clear
7:53 PM 27.0 °F 23.0 °F 21.0 °F 78% 30.48 in 10.0 mi SSW 3.5 mph - N/A   Partly Cloudy
8:53 PM 27.0 °F - 21.0 °F 78% 30.47 in 10.0 mi Calm Calm - N/A   Partly Cloudy
9:53 PM 28.9 °F 23.9 °F 21.9 °F 75% 30.43 in 10.0 mi SW 4.6 mph - N/A   Clear
10:53 PM 27.0 °F 23.0 °F 21.9 °F 81% 30.41 in 10.0 mi SSW 3.5 mph - N/A   Clear
11:53 PM 26.1 °F 20.5 °F 21.0 °F 81% 30.40 in 10.0 mi SSW 4.6 mph - N/A   Clear